SCP
0 0 0 0 0 0 0 0 0 0 0 0 0 0 0 0 0 0 0 0 0 0 0 0 0 0 0 0 0 0 -0 -0 -0 -0 0 0 0 0 0 0 0 0 0 0 0 0 0 0 0
0 0 0 0 0 0 0 0 0 0 0 0 0 0 0 0 0 0 0 0 0 0 0 0 0 0 0 0 0 0 0 0 0 0 0 0 0 0 0 0 0 0 0 0 0 0 0 0 0
0 0 0 0 0 0 0 0 0 0 0 0 0 0 0 0 0 0 0 0 0 0 0 0 0 0 0 0 0 0 0 0 0 0 0 0 0 0 0 0 0 0 0 0 0 0 0 0 0
0 0 0 0 0 0 0 0 0 0 0 0 0 0 0 0 0 0 0 0 0 0 0 0 0 0 0 0 0 0 0 0 0 0 0 0 0 0 0 0 0 0 0 0 0 0 0 0 0
0 0 0 0 0 0 0 0 0 0 0 0 0 0 0 0 0 0 0 0 0 0 0 0 0 0 0 0 0 0 0 0 0 0 0 0 0 0 0 0 0 0 0 0 0 0 0 0 0
0 0 0 0 0 0 0 0 0 0 0 0 0 0 0 0 0 0 0 0 0 0 0 0 0 0 0 0 0 0 0 0 0 0 0 0 0 0 0 0 0 0 0 0 0 0 0 0 0
0 0 0 0 0 0 0 0 0 0 0 0 0 0 0 0 0 0 0 0 0 0 0 0 0 0 0 0 0 0 0 0 0 0 0 0 0 0 0 0 0 0 0 0 0 0 0 0 0
0 0 0 0 0 0 0 0 0 0 0 0 0 0 0 0 0 0 0 0 0 0 0 0 0 0 0 0 0 0 0 0 0 0 0 0 0 0 0 0 0 0 0 0 0 0 0 0 0
0 0 0 0 0 0 0 0 0 0 0 0 0 0 0 0 0 0 0 0 0 0 0 0 0 0 0 0 0 0 0 0 0 0 0 0 0 0 0 0 0 0 0 0 0 0 0 0 0
0 0 0 0 0 0 0 0 0 0 0 0 0 0 0 0 0 0 0 0 0 0 0 0 0 0 0 0 0 0 0 0 0 0 0 0 0 0 0 0 0 0 0 0 0 0 0 0 0
0 0 0 0 0 0 0 0 0 0 0 0 0 0 0 0 0 0 0 0 0 0 0 0 0 0 0 0 0 0 0 0 0 0 0 0 0 0 0 0 0 0 0 0 0 0 0 0 0
0 0 0 0 0 0 0 0 0 0 0 0 0 0 0 0 0 0 0 0 0 0 0 0 0 0 0 0 0 0 0 0 0 0 0 0 0 0 0 0 0 0 0 0 0 0 0 0 0
0 0 0 0 0 0 0 0 0 0 0 0 0 0 0 0 0 0 0 0 0 0 0 0 0 0 0 0 0 0 0 0 0 0 0 0 0 0 0 0 0 0 0 0 0 0 0 0 0
0 0 0 0 0 0 0 0 0 0 0 0 0 0 0 0 0 0 0 0 0 0 0 0 0 0 0 0 0 0 0 0 0 0 0 0 0 0 0 0 0 0 0 0 0 0 0 0 0
0 0 0 0 0 0 0 0 0 0 0 0 0 0 0 0 0 0 0 0 0 0 0 0 0 0 0 0 0 0 0 0 0 0 0 0 0 0 0 0 0 0 0 0 0 0 0 0 0
0 0 0 0 0 0 0 0 0 0 0 0 0 0 0 0 0 0 0 0 0 0 0 0 0 0 0 0 0 0 0 0 0 0 0 0 0 0 0 0 0 0 0 0 0 0 0 0 0
0 0 0 0 0 0 0 0 0 0 0 0 0 0 0 0 0 0 0 0 0 0 0 0 0 0 0 0 0 0 0 0 0 0 0 0 0 0 0 0 0 0 0 0 0 0 0 0 0
0 0 0 0 0 0 0 0 0 0 0 0 0 0 0 0 0 0 0 0 0 0 0 0 0 0 0 0 0 0 0 0 0 0 0 0 0 0 0 0 0 0 0 0 0 0 0 0 0
0 0 0 0 0 0 0 0 0 0 0 0 0 0 0 0 0 0 0 0 0 0 0 0 0 0 0 0 0 0 0 0 0 0 0 0 0 0 0 0 0 0 0 0 0 0 0 0 0
-0 0 0 0 0 0 0 -0 0 0 0 0 0 0 0 0 0 0 0 0 0 0 0 0 0 0 0 0 0 0 0 0 0 0 0 0 0 0 0 0 0 0 0 0 0 0 0 0 0
-0 0 0 0 0 0 -0 0 0 0 0 0 0 0 0 0 0 0 0 0 0 0 0 0 0 0 0 0 0 0 0 0 0 0 0 0 0 0 0 0 0 0 0 0 0 0 0 0 0
0 0 0 0 0 0 0 0 0 0 0 0 0 0 0 0 0 0 0 0 0 0 0 0 0 0 0 0 0 0 0 0 0 0 0 0 0 0 0 0 0 0 0 0 0 0 0 0 0
0 0 0 0 0 0 0 0 0 0 0 0 0 0 0 0 0 0 0 0 0 0 0 0 0 0 0 0 0 0 0 0 0 0 0 0 0 0 0 0 0 0 0 0 0 0 0 0 0
0 0 0 0 0 0 0 0 0 0 0 0 0 0 0 0 0 0 -0 0 0 0 0 0 0 0 0 0 0 0 0 0 0 0 0 0 0 0 0 0 0 0 0 0 0 0 0 0 0
0 0 0 0 0 0 0 0 0 0 0 0 0 0 0 0 0 -0 -0 0 0 0 0 0 0 0 0 0 0 0 0 0 0 0 0 0 0 0 0 0 0 0 0 0 0 0 0 0 0
0 0 0 0 0 0 0 0 0 0 0 0 0 0 0 0 0 -0 0 0 0 0 0 0 0 0 0 0 0 0 0 0 0 0 0 0 0 0 0 0 0 0 0 0 0 0 0 0 0
0 0 0 0 0 0 0 0 0 0 0 0 0 0 0 0 -0 0 0 0 0 0 0 0 0 0 0 0 0 0 0 0 0 0 0 0 0 0 0 0 0 0 0 0 0 0 0 0 0
0 0 0 0 0 0 0 0 0 0 0 0 0 0 0 -0 0 0 0 0 0 0 0 0 0 0 0 0 0 0 0 0 0 0 0 0 0 0 0 0 0 0 0 0 0 0 0 0 0
0 0 0 0 0 0 0 0 0 0 0 0 0 0 -0 0 0 0 0 0 0 0 0 0 0 0 0 0 0 0 0 0 0 0 0 0 0 0 0 0 0 0 0 0 0 0 0 0 0
0 0 0 0 0 0 0 0 0 0 0 0 0 0 0 0 0 0 0 0 0 -0 0 -0 -0 -0 -0 0 0 0 0 0 0 0 0 0 0 0 0 0 0 0 0 0 0 0 0 0 0
Wind_Speed_500mb
10 8 7 5 11 9 13 8 1 3 8 6 6 13 15 20 12 3 4 10 20 15 8 8 10 14 16 16 20 22 18 11 2 11 16 15 13 8 7 8 11 14 16 18 18 17 16 15 13
8 4 1 7 12 14 7 9 7 9 11 7 9 8 11 10 10 8 7 16 17 13 12 8 10 15 20 25 19 11 6 7 10 15 12 8 8 7 7 10 12 13 15 15 17 17 16 15 14
3 2 7 6 10 14 8 7 7 11 8 4 4 13 7 7 7 4 13 15 15 11 12 8 8 18 23 22 16 8 6 5 8 10 12 14 12 11 10 12 13 14 15 16 16 16 15 14 14
3 5 5 9 9 7 10 12 6 11 3 6 4 13 12 7 4 13 11 17 15 13 14 14 14 20 23 16 11 8 7 4 4 3 7 13 13 10 9 11 13 13 14 15 16 16 15 15 15
3 7 8 6 7 1 5 10 8 4 5 7 9 10 9 5 13 14 13 14 15 16 16 19 23 19 18 14 10 10 9 10 6 2 9 12 13 12 9 9 12 15 16 17 17 17 17 16 16
7 8 8 13 9 6 6 10 5 1 2 7 4 6 8 8 13 12 11 21 21 25 20 20 23 18 11 13 12 15 16 14 9 10 8 11 10 11 12 13 14 16 17 19 19 18 19 19 17
4 8 4 4 3 6 6 7 1 4 1 9 5 3 6 13 18 17 17 17 17 21 19 16 19 13 13 13 17 16 15 16 12 13 8 7 6 10 13 12 15 16 17 19 20 21 21 21 21
1 5 7 1 7 7 6 3 4 8 9 3 6 4 8 16 23 22 19 19 21 18 19 27 13 13 12 15 13 15 15 19 13 10 11 8 9 9 15 16 16 18 19 21 22 23 23 23 22
2 7 6 5 4 8 5 3 6 4 2 3 6 6 6 16 23 26 23 22 19 18 19 19 14 17 12 15 14 12 11 13 9 11 12 16 12 11 15 17 18 20 21 23 24 24 24 24 22
5 5 6 7 6 6 4 6 7 5 5 4 4 4 5 12 16 24 24 24 23 22 20 20 16 20 21 18 14 11 13 11 13 13 13 18 17 15 16 18 20 22 24 24 26 26 25 24 23
7 7 6 8 9 5 4 1 4 6 10 2 1 4 9 16 17 18 17 23 29 28 26 24 23 26 23 20 20 19 17 19 19 19 19 18 17 18 19 21 24 24 25 27 26 26 25 22 22
5 8 8 5 10 7 5 10 7 8 6 2 7 6 12 16 15 18 20 20 19 22 26 27 27 25 23 21 22 22 20 20 20 21 20 20 20 21 21 22 23 24 24 25 27 27 25 24 22
9 7 6 6 12 13 18 13 15 15 7 9 8 4 10 12 12 13 16 12 11 14 16 21 23 24 24 24 23 24 23 23 24 24 23 23 22 22 22 22 23 25 26 26 27 28 26 24 22
7 7 8 10 14 12 17 15 10 4 9 8 7 4 7 10 11 10 9 11 13 16 18 23 26 26 26 28 27 28 27 28 28 28 27 25 25 24 24 24 24 25 26 26 26 25 24 22 19
6 2 6 19 20 9 19 16 11 7 10 10 10 9 7 7 8 7 7 10 11 13 16 21 27 30 28 29 31 31 31 30 31 31 29 27 27 25 24 24 25 26 26 25 25 24 22 20 19
3 5 2 13 22 8 16 8 5 5 9 13 11 10 10 9 7 8 15 17 21 24 27 27 30 34 34 34 34 33 34 32 34 34 33 32 30 28 28 27 27 26 25 25 25 24 21 19 19
15 7 15 7 13 13 6 22 1 11 15 20 16 14 12 10 6 8 15 19 22 24 26 28 31 37 39 40 40 38 37 36 37 37 37 37 35 32 31 30 29 28 27 27 26 26 24 21 20
13 9 10 13 16 19 19 26 23 26 19 22 20 13 12 9 6 14 18 22 24 27 29 32 34 36 39 44 44 43 42 39 39 39 41 41 39 37 35 34 32 29 28 28 28 27 26 24 22
11 11 16 12 12 22 18 31 34 27 18 21 21 16 10 10 7 14 20 24 27 29 32 34 35 34 38 42 45 44 43 40 39 40 43 42 41 40 38 36 34 31 29 28 28 26 25 24 23
12 8 13 4 6 14 19 37 13 24 21 21 21 20 14 9 9 13 18 23 28 31 32 32 30 29 31 36 35 30 26 29 32 37 41 43 43 42 40 39 37 34 30 27 25 22 21 22 21
13 10 12 10 26 9 28 11 17 20 32 31 33 27 19 14 12 15 21 25 29 33 35 33 32 29 27 31 37 42 43 42 40 41 41 42 42 43 42 40 37 35 32 28 26 24 22 19 22
2 10 11 14 16 7 17 1 14 20 25 35 37 37 35 23 18 19 24 30 36 37 37 37 34 31 29 29 34 36 34 29 28 28 40 43 42 42 41 39 38 37 35 33 31 30 28 26 21
6 10 8 6 6 9 7 3 12 18 21 29 37 40 38 32 22 22 26 32 36 40 41 41 39 37 34 32 34 38 40 37 32 39 42 43 44 44 45 43 43 40 38 36 33 32 30 29 27
14 8 6 4 2 3 3 8 5 9 12 20 34 40 39 37 33 28 27 29 32 40 44 45 44 42 39 37 38 41 43 40 41 42 44 43 44 45 46 44 43 40 37 34 33 31 30 29 30
13 5 5 3 3 5 1 9 8 10 17 24 29 36 36 37 37 37 38 39 44 50 56 57 56 54 51 47 45 45 47 48 48 44 46 42 45 45 44 41 40 38 36 35 34 33 33 34 34
9 3 3 9 7 12 4 9 5 16 26 24 29 30 34 37 37 39 42 46 50 53 56 58 61 63 59 57 55 55 54 54 54 52 50 48 45 43 43 39 38 36 35 35 36 36 37 37 37
3 0 4 4 2 5 6 7 16 15 12 29 35 37 38 39 40 46 54 60 66 66 68 67 65 64 64 66 64 61 59 60 59 58 54 50 47 44 40 37 36 36 36 36 36 37 38 39 39
2 4 2 4 7 10 9 8 13 12 4 19 34 32 37 37 44 58 62 65 70 71 73 74 72 72 70 66 70 68 63 61 58 56 53 49 46 42 39 37 35 34 35 35 36 36 36 38 37
4 3 2 4 5 8 11 6 2 15 9 11 16 26 42 49 59 68 72 75 72 72 75 75 74 74 76 77 74 72 71 65 62 60 55 52 47 43 39 37 35 34 34 35 36 37 37 39 38
3 4 8 7 5 6 7 16 10 15 5 7 31 45 38 45 62 71 73 71 70 67 72 76 73 70 72 75 76 78 77 70 68 64 59 54 49 43 40 38 37 35 35 36 36 36 36 39 41
Wind_Direction_500mb
298 325 341 295 237 242 227 137 350 163 150 35 32 20 63 43 7 31 137 144 167 143 176 197 184 179 172 168 149 134 123 117 42 328 325 319 308 285 300 314 327 328 336 343 347 351 354 352 350
283 306 301 270 259 224 171 105 181 50 81 68 57 7 31 75 49 77 104 142 150 140 157 182 183 166 162 155 149 140 106 80 27 343 302 297 294 288 301 307 312 318 329 337 340 344 347 350 349
246 159 258 243 266 268 48 69 85 116 76 39 92 57 37 61 76 111 138 148 153 165 168 188 184 169 167 168 168 163 149 96 61 36 341 323 312 306 299 301 308 320 332 336 336 340 341 344 343
148 194 208 244 205 328 7 51 40 142 104 52 52 88 80 80 129 137 157 165 171 171 164 169 179 182 184 186 201 207 232 234 187 111 328 321 311 297 299 304 313 320 326 327 331 332 337 337 335
189 213 212 229 224 79 45 25 18 125 63 57 346 96 80 117 132 141 141 171 178 184 177 165 178 171 193 207 232 241 261 273 273 288 287 282 302 298 297 313 321 328 331 329 328 328 329 330 328
204 283 223 227 179 141 90 20 0 337 54 64 83 83 86 164 157 146 140 184 201 184 190 194 185 215 236 264 255 269 277 275 278 282 277 282 291 299 306 312 314 316 320 323 323 324 325 324 325
262 235 296 80 165 186 54 344 313 346 28 60 9 335 107 159 179 176 167 154 158 186 189 212 247 238 250 248 270 266 263 262 264 277 273 281 293 308 309 312 316 315 318 319 321 322 322 321 324
264 271 177 207 193 115 34 2 1 357 78 27 21 66 109 183 188 186 198 196 214 218 224 244 220 235 249 277 268 275 282 271 271 275 280 285 286 298 304 308 311 312 316 317 317 318 318 318 319
343 222 169 113 175 86 18 283 35 2 308 77 47 37 152 178 195 191 202 214 227 225 242 252 244 264 274 283 282 294 292 288 259 255 283 289 287 294 299 303 308 311 313 315 316 317 317 319 318
318 275 67 45 54 68 36 331 347 291 192 171 141 8 257 215 191 200 210 224 233 239 244 253 275 286 287 290 295 293 282 264 258 276 279 278 287 292 295 301 307 311 315 316 315 316 317 318 318
19 34 115 62 29 14 8 237 328 286 239 59 245 241 220 208 191 200 208 232 233 241 258 270 280 288 292 290 285 276 272 265 266 266 267 272 279 287 297 303 308 313 316 317 319 318 319 319 316
121 51 19 38 10 350 358 317 277 262 359 291 291 245 222 200 204 205 213 229 240 254 261 274 280 283 279 280 275 269 267 269 270 268 271 275 276 282 291 299 305 311 314 317 320 319 317 315 314
64 96 60 28 3 350 330 306 301 278 287 318 308 243 213 202 202 225 222 232 238 241 253 268 276 277 273 269 266 267 270 270 271 271 272 272 276 282 291 299 305 310 314 318 318 317 316 313 312
71 88 72 30 6 358 337 300 328 77 341 328 316 261 215 205 207 233 234 243 259 268 270 273 278 280 280 278 273 272 271 271 270 270 269 271 276 283 289 298 305 309 314 316 314 313 310 308 308
99 150 107 32 360 11 338 260 248 345 328 302 270 250 227 229 225 242 252 249 265 267 276 274 278 279 277 275 274 273 271 269 269 269 269 269 271 277 285 292 299 303 306 308 311 310 305 303 303
326 245 256 45 11 9 341 328 35 274 297 290 268 249 240 239 236 259 272 274 274 277 276 272 276 276 275 272 272 273 273 271 270 270 270 270 272 277 282 287 290 293 299 303 305 303 299 295 293
25 22 16 107 39 327 316 306 15 260 285 289 276 262 250 241 258 274 284 287 288 290 290 288 282 277 272 268 266 267 270 269 268 268 267 267 267 269 273 278 282 290 297 302 304 302 299 294 294
7 10 354 356 3 340 301 280 306 303 276 288 289 277 272 276 281 279 291 297 301 301 299 295 290 281 271 263 262 263 265 267 269 269 267 267 266 268 270 274 280 287 292 298 302 304 302 297 291
342 343 340 14 20 328 300 306 313 326 335 333 304 287 293 296 281 303 305 307 309 310 309 304 294 280 268 262 257 257 262 266 266 270 268 266 266 267 269 273 277 280 285 292 299 304 303 297 293
3 345 2 294 324 316 324 310 47 37 34 28 21 16 358 314 312 323 322 321 319 320 320 317 309 295 271 261 254 248 253 251 264 270 273 269 267 266 266 267 270 274 279 284 291 300 305 300 296
44 21 357 319 315 244 323 112 96 74 73 61 43 30 14 357 336 329 328 329 327 329 330 328 323 311 286 267 257 256 257 263 270 271 273 272 268 266 264 265 266 270 274 278 284 290 295 295 296
296 2 319 319 338 320 13 235 131 111 77 49 37 28 20 6 349 341 335 333 334 334 335 333 330 321 305 284 269 261 261 267 272 261 273 275 270 265 263 263 265 268 271 274 277 280 281 281 278
7 330 318 326 303 317 29 268 106 157 61 44 39 33 24 13 0 344 336 337 339 338 337 335 332 326 314 296 278 266 264 262 260 268 272 272 270 265 263 263 265 267 270 274 276 278 280 279 276
326 307 287 242 190 255 52 356 54 39 22 50 35 24 18 12 9 360 345 340 339 336 336 333 329 324 316 303 289 276 267 264 265 269 270 269 268 266 264 264 266 269 270 273 276 278 279 280 280
353 318 330 271 270 302 13 272 344 46 69 57 26 15 13 10 10 3 357 349 345 341 337 333 328 323 315 305 293 282 274 268 266 266 267 263 265 263 263 263 263 264 267 272 275 278 281 283 283
14 17 19 297 291 326 178 237 132 96 108 58 33 22 15 12 12 13 11 4 355 349 343 335 327 320 314 307 298 288 281 276 272 268 267 266 262 260 261 262 265 268 274 277 279 281 282 282 281
54 93 41 110 118 256 260 249 124 121 79 20 22 22 19 15 18 16 11 3 357 353 349 340 332 323 314 306 298 291 283 277 273 271 267 264 261 260 261 263 267 272 277 281 284 284 284 283 282
324 91 204 176 283 276 210 258 280 184 69 3 17 15 9 15 15 7 2 358 356 352 348 342 334 323 318 305 295 288 282 276 271 267 264 261 260 261 264 267 271 275 278 280 282 284 285 286 287
149 192 217 315 253 275 298 245 359 108 59 356 347 4 14 13 6 0 355 353 350 348 345 340 334 325 317 310 299 285 278 272 267 263 260 259 260 263 266 270 273 276 278 282 284 286 287 288 289
278 264 227 250 230 247 300 275 87 104 70 10 5 5 2 359 357 356 354 351 347 344 340 339 336 329 323 310 296 285 276 269 265 262 258 257 259 261 264 269 273 278 282 284 286 287 287 288 289
Wind_Speed_850mb
10 8 7 5 11 9 13 8 1 3 8 6 6 13 15 20 12 3 4 10 20 15 8 8 10 14 16 16 20 22 18 11 2 11 16 15 13 8 7 8 11 14 16 18 18 17 16 15 13
8 4 1 7 12 14 7 9 7 9 11 7 9 8 11 10 10 8 7 16 17 13 12 8 10 15 20 25 19 11 6 7 10 15 12 8 8 7 7 10 12 13 15 15 17 17 16 15 14
3 2 7 6 10 14 8 7 7 11 8 4 4 13 7 7 7 4 13 15 15 11 12 8 8 18 23 22 16 8 6 5 8 10 12 14 12 11 10 12 13 14 15 16 16 16 15 14 14
3 5 5 9 9 7 10 12 6 11 3 6 4 13 12 7 4 13 11 17 15 13 14 14 14 20 23 16 11 8 7 4 4 3 7 13 13 10 9 11 13 13 14 15 16 16 15 15 15
3 7 8 6 7 1 5 10 8 4 5 7 9 10 9 5 13 14 13 14 15 16 16 19 23 19 18 14 10 10 9 10 6 2 9 12 13 12 9 9 12 15 16 17 17 17 17 16 16
7 8 8 13 9 6 6 10 5 1 2 7 4 6 8 8 13 12 11 21 21 25 20 20 23 18 11 13 12 15 16 14 9 10 8 11 10 11 12 13 14 16 17 19 19 18 19 19 17
4 8 4 4 3 6 6 7 1 4 1 9 5 3 6 13 18 17 17 17 17 21 19 16 19 13 13 13 17 16 15 16 12 13 8 7 6 10 13 12 15 16 17 19 20 21 21 21 21
1 5 7 1 7 7 6 3 4 8 9 3 6 4 8 16 23 22 19 19 21 18 19 27 13 13 12 15 13 15 15 19 13 10 11 8 9 9 15 16 16 18 19 21 22 23 23 23 22
2 7 6 5 4 8 5 3 6 4 2 3 6 6 6 16 23 26 23 22 19 18 19 19 14 17 12 15 14 12 11 13 9 11 12 16 12 11 15 17 18 20 21 23 24 24 24 24 22
5 5 6 7 6 6 4 6 7 5 5 4 4 4 5 12 16 24 24 24 23 22 20 20 16 20 21 18 14 11 13 11 13 13 13 18 17 15 16 18 20 22 24 24 26 26 25 24 23
7 7 6 8 9 5 4 1 4 6 10 2 1 4 9 16 17 18 17 23 29 28 26 24 23 26 23 20 20 19 17 19 19 19 19 18 17 18 19 21 24 24 25 27 26 26 25 22 22
5 8 8 5 10 7 5 10 7 8 6 2 7 6 12 16 15 18 20 20 19 22 26 27 27 25 23 21 22 22 20 20 20 21 20 20 20 21 21 22 23 24 24 25 27 27 25 24 22
9 7 6 6 12 13 18 13 15 15 7 9 8 4 10 12 12 13 16 12 11 14 16 21 23 24 24 24 23 24 23 23 24 24 23 23 22 22 22 22 23 25 26 26 27 28 26 24 22
7 7 8 10 14 12 17 15 10 4 9 8 7 4 7 10 11 10 9 11 13 16 18 23 26 26 26 28 27 28 27 28 28 28 27 25 25 24 24 24 24 25 26 26 26 25 24 22 19
6 2 6 19 20 9 19 16 11 7 10 10 10 9 7 7 8 7 7 10 11 13 16 21 27 30 28 29 31 31 31 30 31 31 29 27 27 25 24 24 25 26 26 25 25 24 22 20 19
3 5 2 13 22 8 16 8 5 5 9 13 11 10 10 9 7 8 15 17 21 24 27 27 30 34 34 34 34 33 34 32 34 34 33 32 30 28 28 27 27 26 25 25 25 24 21 19 19
15 7 15 7 13 13 6 22 1 11 15 20 16 14 12 10 6 8 15 19 22 24 26 28 31 37 39 40 40 38 37 36 37 37 37 37 35 32 31 30 29 28 27 27 26 26 24 21 20
13 9 10 13 16 19 19 26 23 26 19 22 20 13 12 9 6 14 18 22 24 27 29 32 34 36 39 44 44 43 42 39 39 39 41 41 39 37 35 34 32 29 28 28 28 27 26 24 22
11 11 16 12 12 22 18 31 34 27 18 21 21 16 10 10 7 14 20 24 27 29 32 34 35 34 38 42 45 44 43 40 39 40 43 42 41 40 38 36 34 31 29 28 28 26 25 24 23
12 8 13 4 6 14 19 37 13 24 21 21 21 20 14 9 9 13 18 23 28 31 32 32 30 29 31 36 35 30 26 29 32 37 41 43 43 42 40 39 37 34 30 27 25 22 21 22 21
13 10 12 10 26 9 28 11 17 20 32 31 33 27 19 14 12 15 21 25 29 33 35 33 32 29 27 31 37 42 43 42 40 41 41 42 42 43 42 40 37 35 32 28 26 24 22 19 22
2 10 11 14 16 7 17 1 14 20 25 35 37 37 35 23 18 19 24 30 36 37 37 37 34 31 29 29 34 36 34 29 28 28 40 43 42 42 41 39 38 37 35 33 31 30 28 26 21
6 10 8 6 6 9 7 3 12 18 21 29 37 40 38 32 22 22 26 32 36 40 41 41 39 37 34 32 34 38 40 37 32 39 42 43 44 44 45 43 43 40 38 36 33 32 30 29 27
14 8 6 4 2 3 3 8 5 9 12 20 34 40 39 37 33 28 27 29 32 40 44 45 44 42 39 37 38 41 43 40 41 42 44 43 44 45 46 44 43 40 37 34 33 31 30 29 30
13 5 5 3 3 5 1 9 8 10 17 24 29 36 36 37 37 37 38 39 44 50 56 57 56 54 51 47 45 45 47 48 48 44 46 42 45 45 44 41 40 38 36 35 34 33 33 34 34
9 3 3 9 7 12 4 9 5 16 26 24 29 30 34 37 37 39 42 46 50 53 56 58 61 63 59 57 55 55 54 54 54 52 50 48 45 43 43 39 38 36 35 35 36 36 37 37 37
3 0 4 4 2 5 6 7 16 15 12 29 35 37 38 39 40 46 54 60 66 66 68 67 65 64 64 66 64 61 59 60 59 58 54 50 47 44 40 37 36 36 36 36 36 37 38 39 39
2 4 2 4 7 10 9 8 13 12 4 19 34 32 37 37 44 58 62 65 70 71 73 74 72 72 70 66 70 68 63 61 58 56 53 49 46 42 39 37 35 34 35 35 36 36 36 38 37
4 3 2 4 5 8 11 6 2 15 9 11 16 26 42 49 59 68 72 75 72 72 75 75 74 74 76 77 74 72 71 65 62 60 55 52 47 43 39 37 35 34 34 35 36 37 37 39 38
3 4 8 7 5 6 7 16 10 15 5 7 31 45 38 45 62 71 73 71 70 67 72 76 73 70 72 75 76 78 77 70 68 64 59 54 49 43 40 38 37 35 35 36 36 36 36 39 41
Wind_Direction_850mb
298 325 341 295 237 242 227 137 350 163 150 35 32 20 63 43 7 31 137 144 167 143 176 197 184 179 172 168 149 134 123 117 42 328 325 319 308 285 300 314 327 328 336 343 347 351 354 352 350
283 306 301 270 259 224 171 105 181 50 81 68 57 7 31 75 49 77 104 142 150 140 157 182 183 166 162 155 149 140 106 80 27 343 302 297 294 288 301 307 312 318 329 337 340 344 347 350 349
246 159 258 243 266 268 48 69 85 116 76 39 92 57 37 61 76 111 138 148 153 165 168 188 184 169 167 168 168 163 149 96 61 36 341 323 312 306 299 301 308 320 332 336 336 340 341 344 343
148 194 208 244 205 328 7 51 40 142 104 52 52 88 80 80 129 137 157 165 171 171 164 169 179 182 184 186 201 207 232 234 187 111 328 321 311 297 299 304 313 320 326 327 331 332 337 337 335
189 213 212 229 224 79 45 25 18 125 63 57 346 96 80 117 132 141 141 171 178 184 177 165 178 171 193 207 232 241 261 273 273 288 287 282 302 298 297 313 321 328 331 329 328 328 329 330 328
204 283 223 227 179 141 90 20 0 337 54 64 83 83 86 164 157 146 140 184 201 184 190 194 185 215 236 264 255 269 277 275 278 282 277 282 291 299 306 312 314 316 320 323 323 324 325 324 325
262 235 296 80 165 186 54 344 313 346 28 60 9 335 107 159 179 176 167 154 158 186 189 212 247 238 250 248 270 266 263 262 264 277 273 281 293 308 309 312 316 315 318 319 321 322 322 321 324
264 271 177 207 193 115 34 2 1 357 78 27 21 66 109 183 188 186 198 196 214 218 224 244 220 235 249 277 268 275 282 271 271 275 280 285 286 298 304 308 311 312 316 317 317 318 318 318 319
343 222 169 113 175 86 18 283 35 2 308 77 47 37 152 178 195 191 202 214 227 225 242 252 244 264 274 283 282 294 292 288 259 255 283 289 287 294 299 303 308 311 313 315 316 317 317 319 318
318 275 67 45 54 68 36 331 347 291 192 171 141 8 257 215 191 200 210 224 233 239 244 253 275 286 287 290 295 293 282 264 258 276 279 278 287 292 295 301 307 311 315 316 315 316 317 318 318
19 34 115 62 29 14 8 237 328 286 239 59 245 241 220 208 191 200 208 232 233 241 258 270 280 288 292 290 285 276 272 265 266 266 267 272 279 287 297 303 308 313 316 317 319 318 319 319 316
121 51 19 38 10 350 358 317 277 262 359 291 291 245 222 200 204 205 213 229 240 254 261 274 280 283 279 280 275 269 267 269 270 268 271 275 276 282 291 299 305 311 314 317 320 319 317 315 314
64 96 60 28 3 350 330 306 301 278 287 318 308 243 213 202 202 225 222 232 238 241 253 268 276 277 273 269 266 267 270 270 271 271 272 272 276 282 291 299 305 310 314 318 318 317 316 313 312
71 88 72 30 6 358 337 300 328 77 341 328 316 261 215 205 207 233 234 243 259 268 270 273 278 280 280 278 273 272 271 271 270 270 269 271 276 283 289 298 305 309 314 316 314 313 310 308 308
99 150 107 32 360 11 338 260 248 345 328 302 270 250 227 229 225 242 252 249 265 267 276 274 278 279 277 275 274 273 271 269 269 269 269 269 271 277 285 292 299 303 306 308 311 310 305 303 303
326 245 256 45 11 9 341 328 35 274 297 290 268 249 240 239 236 259 272 274 274 277 276 272 276 276 275 272 272 273 273 271 270 270 270 270 272 277 282 287 290 293 299 303 305 303 299 295 293
25 22 16 107 39 327 316 306 15 260 285 289 276 262 250 241 258 274 284 287 288 290 290 288 282 277 272 268 266 267 270 269 268 268 267 267 267 269 273 278 282 290 297 302 304 302 299 294 294
7 10 354 356 3 340 301 280 306 303 276 288 289 277 272 276 281 279 291 297 301 301 299 295 290 281 271 263 262 263 265 267 269 269 267 267 266 268 270 274 280 287 292 298 302 304 302 297 291
342 343 340 14 20 328 300 306 313 326 335 333 304 287 293 296 281 303 305 307 309 310 309 304 294 280 268 262 257 257 262 266 266 270 268 266 266 267 269 273 277 280 285 292 299 304 303 297 293
3 345 2 294 324 316 324 310 47 37 34 28 21 16 358 314 312 323 322 321 319 320 320 317 309 295 271 261 254 248 253 251 264 270 273 269 267 266 266 267 270 274 279 284 291 300 305 300 296
44 21 357 319 315 244 323 112 96 74 73 61 43 30 14 357 336 329 328 329 327 329 330 328 323 311 286 267 257 256 257 263 270 271 273 272 268 266 264 265 266 270 274 278 284 290 295 295 296
296 2 319 319 338 320 13 235 131 111 77 49 37 28 20 6 349 341 335 333 334 334 335 333 330 321 305 284 269 261 261 267 272 261 273 275 270 265 263 263 265 268 271 274 277 280 281 281 278
7 330 318 326 303 317 29 268 106 157 61 44 39 33 24 13 0 344 336 337 339 338 337 335 332 326 314 296 278 266 264 262 260 268 272 272 270 265 263 263 265 267 270 274 276 278 280 279 276
326 307 287 242 190 255 52 356 54 39 22 50 35 24 18 12 9 360 345 340 339 336 336 333 329 324 316 303 289 276 267 264 265 269 270 269 268 266 264 264 266 269 270 273 276 278 279 280 280
353 318 330 271 270 302 13 272 344 46 69 57 26 15 13 10 10 3 357 349 345 341 337 333 328 323 315 305 293 282 274 268 266 266 267 263 265 263 263 263 263 264 267 272 275 278 281 283 283
14 17 19 297 291 326 178 237 132 96 108 58 33 22 15 12 12 13 11 4 355 349 343 335 327 320 314 307 298 288 281 276 272 268 267 266 262 260 261 262 265 268 274 277 279 281 282 282 281
54 93 41 110 118 256 260 249 124 121 79 20 22 22 19 15 18 16 11 3 357 353 349 340 332 323 314 306 298 291 283 277 273 271 267 264 261 260 261 263 267 272 277 281 284 284 284 283 282
324 91 204 176 283 276 210 258 280 184 69 3 17 15 9 15 15 7 2 358 356 352 348 342 334 323 318 305 295 288 282 276 271 267 264 261 260 261 264 267 271 275 278 280 282 284 285 286 287
149 192 217 315 253 275 298 245 359 108 59 356 347 4 14 13 6 0 355 353 350 348 345 340 334 325 317 310 299 285 278 272 267 263 260 259 260 263 266 270 273 276 278 282 284 286 287 288 289
278 264 227 250 230 247 300 275 87 104 70 10 5 5 2 359 357 356 354 351 347 344 340 339 336 329 323 310 296 285 276 269 265 262 258 257 259 261 264 269 273 278 282 284 286 287 287 288 289